Location: Jetmore Oil Field
(38.1181°N, 99.9337°W)
Time: 04:48:23
(UTC+00:00)

Cosmos 1503 Rocket - Pass Details

Date: 17 February 2020
Orbit: 753 x 790 km, 74.0° (Epoch: 02 April)

Event Time Altitude Azimuth Distance (km) Brightness Sun altitude
Rises 01:02:13 0° 348° (NNW) 3,272 7.3 -9.1°
Reaches altitude 10° 01:04:44 10° 354° (N) 2,335 6.5 -9.6°
Maximum altitude 01:09:48 45° 67° (ENE) 1,042 4.3 -10.6°
Drops below altitude 10° 01:14:48 10° 140° (SE) 2,297 6.2 -11.6°
Sets 01:17:15 0° 147° (SSE) 3,213 7.0 -12.1°
